TimeCST,TemperatureF,Dew PointF,Humidity,Sea Level PressureIn,VisibilityMPH,Wind Direction,Wind SpeedMPH,Gust SpeedMPH,PrecipitationIn,Events,Conditions,WindDirDegrees,DateUTC
12:35 AM,31.1,18.7,60,29.69,10.0,West,16.1,-,N/A,,Overcast,260,2011-11-16 06:35:00
12:55 AM,31.3,18.7,60,29.69,10.0,WSW,12.7,19.6,N/A,,Overcast,250,2011-11-16 06:55:00
1:15 AM,31.3,19.0,61,29.69,10.0,West,15.0,24.2,N/A,,Overcast,260,2011-11-16 07:15:00
1:35 AM,31.3,19.4,61,29.69,10.0,West,15.0,24.2,N/A,,Overcast,260,2011-11-16 07:35:00
1:55 AM,31.3,19.8,62,29.70,10.0,West,12.7,20.7,N/A,,Overcast,270,2011-11-16 07:55:00
2:15 AM,31.3,20.1,63,29.71,10.0,West,13.8,24.2,N/A,,Overcast,260,2011-11-16 08:15:00
2:35 AM,31.3,20.3,64,29.71,10.0,West,15.0,25.3,N/A,,Overcast,270,2011-11-16 08:35:00
2:55 AM,31.3,20.8,65,29.70,10.0,West,13.8,19.6,N/A,,Overcast,260,2011-11-16 08:55:00
3:15 AM,31.1,21.2,67,29.71,10.0,West,16.1,23.0,N/A,,Overcast,270,2011-11-16 09:15:00
3:35 AM,31.3,21.2,66,29.72,10.0,West,16.1,23.0,N/A,,Overcast,280,2011-11-16 09:35:00
3:55 AM,31.1,21.2,67,29.72,10.0,West,12.7,24.2,N/A,,Overcast,270,2011-11-16 09:55:00
4:15 AM,30.9,21.2,67,29.73,10.0,West,10.4,20.7,N/A,,Overcast,270,2011-11-16 10:15:00
4:35 AM,30.7,21.0,67,29.73,10.0,West,9.2,20.7,N/A,,Overcast,270,2011-11-16 10:35:00
4:55 AM,30.6,20.8,67,29.74,10.0,West,10.4,19.6,N/A,,Overcast,280,2011-11-16 10:55:00
5:15 AM,30.6,20.5,66,29.75,10.0,West,9.2,-,N/A,,Overcast,280,2011-11-16 11:15:00
5:35 AM,30.4,19.9,65,29.75,10.0,West,16.1,21.9,N/A,,Overcast,270,2011-11-16 11:35:00
5:55 AM,30.2,19.4,64,29.76,10.0,WNW,17.3,25.3,N/A,,Overcast,290,2011-11-16 11:55:00
6:15 AM,30.0,18.9,63,29.77,10.0,West,9.2,26.5,N/A,,Overcast,270,2011-11-16 12:15:00
6:35 AM,29.8,18.9,64,29.78,10.0,West,13.8,20.7,N/A,,Overcast,270,2011-11-16 12:35:00
6:55 AM,29.3,18.5,64,29.79,10.0,West,13.8,17.3,N/A,,Overcast,270,2011-11-16 12:55:00
7:35 AM,28.4,18.5,66,29.82,10.0,WNW,15.0,20.7,N/A,,Overcast,300,2011-11-16 13:35:00
8:15 AM,27.0,13.1,56,29.85,10.0,WNW,21.9,28.8,N/A,,Overcast,290,2011-11-16 14:15:00
8:35 AM,26.6,12.4,55,29.85,10.0,WNW,15.0,20.7,N/A,,Overcast,290,2011-11-16 14:35:00
8:55 AM,26.4,12.7,56,29.86,10.0,West,16.1,20.7,N/A,,Overcast,280,2011-11-16 14:55:00
9:15 AM,26.2,12.4,56,29.87,10.0,WNW,12.7,24.2,N/A,,Overcast,290,2011-11-16 15:15:00
9:35 AM,26.2,12.2,55,29.88,10.0,WNW,17.3,27.6,N/A,,Overcast,290,2011-11-16 15:35:00
9:55 AM,26.6,12.4,55,29.88,10.0,NW,11.5,21.9,N/A,,Overcast,310,2011-11-16 15:55:00
10:15 AM,27.1,12.6,54,29.89,10.0,WNW,17.3,27.6,N/A,,Overcast,300,2011-11-16 16:15:00
10:35 AM,27.3,12.9,55,29.88,10.0,WNW,13.8,20.7,N/A,,Overcast,290,2011-11-16 16:35:00
10:55 AM,28.2,13.6,54,29.88,10.0,WNW,10.4,21.9,N/A,,Overcast,290,2011-11-16 16:55:00
11:15 AM,30.6,14.2,51,29.88,10.0,WNW,15.0,21.9,N/A,,Overcast,300,2011-11-16 17:15:00
11:35 AM,31.6,13.6,47,29.88,10.0,WNW,12.7,20.7,N/A,,Mostly Cloudy,290,2011-11-16 17:35:00
11:55 AM,30.9,12.7,47,29.87,10.0,West,12.7,21.9,N/A,,Scattered Clouds,280,2011-11-16 17:55:00
12:15 PM,31.3,12.2,45,29.87,10.0,West,10.4,20.7,N/A,,Scattered Clouds,270,2011-11-16 18:15:00
12:35 PM,32.4,11.3,42,29.86,10.0,WNW,15.0,26.5,N/A,,Scattered Clouds,290,2011-11-16 18:35:00
12:55 PM,33.3,9.9,38,29.86,10.0,West,10.4,16.1,N/A,,Mostly Cloudy,270,2011-11-16 18:55:00
1:15 PM,33.6,9.9,37,29.86,10.0,WSW,17.3,23.0,N/A,,Overcast,250,2011-11-16 19:15:00
1:35 PM,33.3,8.2,35,29.87,10.0,West,17.3,23.0,N/A,,Overcast,260,2011-11-16 19:35:00
1:55 PM,32.5,7.9,36,29.87,10.0,West,15.0,26.5,N/A,,Mostly Cloudy,280,2011-11-16 19:55:00
2:15 PM,31.8,7.7,36,29.87,10.0,West,18.4,26.5,N/A,,Mostly Cloudy,260,2011-11-16 20:15:00
2:35 PM,31.1,8.1,38,29.88,10.0,West,12.7,21.9,N/A,,Mostly Cloudy,270,2011-11-16 20:35:00
2:55 PM,30.7,9.1,40,29.89,10.0,West,15.0,19.6,N/A,,Overcast,270,2011-11-16 20:55:00
3:15 PM,30.6,9.3,41,29.89,10.0,West,16.1,26.5,N/A,,Overcast,270,2011-11-16 21:15:00
3:35 PM,29.8,9.3,42,29.90,10.0,West,12.7,24.2,N/A,,Overcast,270,2011-11-16 21:35:00
3:55 PM,29.5,10.0,44,29.91,10.0,West,12.7,20.7,N/A,,Overcast,280,2011-11-16 21:55:00
4:15 PM,29.1,9.9,45,29.91,10.0,West,12.7,24.2,N/A,,Overcast,270,2011-11-16 22:15:00
4:35 PM,28.8,10.8,47,29.92,10.0,West,9.2,17.3,N/A,,Overcast,270,2011-11-16 22:35:00
5:15 PM,27.9,12.6,53,29.93,10.0,West,15.0,20.7,N/A,,Overcast,280,2011-11-16 23:15:00
5:35 PM,27.5,13.3,55,29.93,10.0,West,8.1,16.1,N/A,,Overcast,280,2011-11-16 23:35:00
5:55 PM,27.3,13.8,57,29.94,7.0,West,8.1,23.0,N/A,Snow,Light Snow,270,2011-11-16 23:55:00
6:15 PM,27.3,13.3,56,29.94,10.0,WNW,12.7,18.4,N/A,,Overcast,300,2011-11-17 00:15:00
6:35 PM,27.1,12.4,54,29.94,10.0,West,12.7,17.3,N/A,,Overcast,270,2011-11-17 00:35:00
6:55 PM,27.0,12.4,54,29.94,10.0,West,10.4,-,N/A,,Overcast,280,2011-11-17 00:55:00
7:35 PM,26.6,11.7,53,29.94,10.0,WNW,10.4,-,N/A,,Overcast,290,2011-11-17 01:35:00
7:55 PM,26.6,12.0,54,29.93,10.0,West,6.9,16.1,N/A,,Overcast,280,2011-11-17 01:55:00
8:15 PM,26.6,11.8,54,29.93,10.0,West,8.1,17.3,N/A,,Overcast,280,2011-11-17 02:15:00
8:55 PM,25.9,14.9,63,29.94,7.0,WNW,5.8,-,N/A,Snow,Light Snow,300,2011-11-17 02:55:00
9:15 PM,24.8,17.8,75,29.93,10.0,WNW,4.6,-,N/A,,Overcast,290,2011-11-17 03:15:00
9:35 PM,24.4,17.1,73,29.94,3.0,NW,13.8,-,N/A,Snow,Light Snow,310,2011-11-17 03:35:00
9:55 PM,23.4,18.0,80,29.94,10.0,WNW,8.1,-,N/A,Snow,Light Snow,300,2011-11-17 03:55:00
10:15 PM,23.7,17.2,76,29.93,10.0,WNW,8.1,-,N/A,,Overcast,290,2011-11-17 04:15:00
10:35 PM,23.5,16.3,74,29.93,10.0,NNW,11.5,-,N/A,Snow,Light Snow,330,2011-11-17 04:35:00
10:55 PM,22.5,16.3,77,29.94,5.0,NW,11.5,18.4,N/A,Snow,Light Snow,310,2011-11-17 04:55:00
11:15 PM,21.9,15.4,76,29.94,5.0,WNW,9.2,-,N/A,Snow,Light Snow,300,2011-11-17 05:15:00
11:35 PM,21.9,14.0,72,29.94,10.0,NW,15.0,21.9,N/A,,Overcast,310,2011-11-17 05:35:00
11:55 PM,21.6,13.5,71,29.94,10.0,WNW,9.2,17.3,N/A,Snow,Light Snow,300,2011-11-17 05:55:00